STARLINK-32149, 60292

Orbit data source: Space-Track

STARLINK-32149, 60292 is a payload satellite owned by SpaceX/Seattle (US) in LEO that was launched on Sun, 28 Jul 2024 UTC via an FALCON 9 launch vehicle from the Air Force Eastern Test Range (AFETR). Payload-class satellites include a variety of spacecraft equipped with specific instruments for various scientific and technological missions. These include communications satellites like Starlink; space stations such as the ISS; scientific satellites like the Hubble; Earth observation satellites from companies like Planet Labs, Umbra, and HawkEye 360; GPS; miniature CubeSats for education and research; and military/defense satellites.

Loading next visibility...
Identifier
60292, 2024-132Q
Orbit
LEO
Country
Flag of USUS
Related business
Manufacturer
SpaceX/Seattle
Mission
Operational Commercial Communications
Bus & Motor
STARLINK V2M, Unknown motor
Mass
730 kg wet, ~700 kg dry
Launch date (UTC)
2024-07-28 (2 years ago)
Launch vehicle
FALCON 9
Launch site
Air Force Eastern Test Range (AFETR)
Object type
Payload
Rocket body
Debris
Shape & HBR
Box + 2 Pan, 17.7 m
Radar Cross Section
33.884 m², Large (>1 m²)

Expand to show TLE details & history
Last TLE update: 1 day ago

TLE from 1 day ago
0 STARLINK-32149
1 60292U 24132Q   26071.20798577 -.00000014  00000-0  11660-4 0  9996
2 60292  53.1625  40.8993 0001227  83.4018 276.7122 15.30192541 91943
Epoch: 2026-03-12T04:59Z
TLE epoch observation values (Epoch: 2026-03-12T04:59:29.970Z)
Latitude
-0.00006°
Longitude
156.16321°
Altitude
476.039 km
Speed
7.629 km/s
True Right ascension
02h 43m 35s
True Declination
0° 00' 00"
Sunlit
Object was in daylight at epoch
Visualization orbit readout
Latitude
Unknown
Longitude
Unknown
Altitude
Unknown
Speed
Unknown
Apparent Right ascension
Unknown
Apparent Declination
Unknown
Sunlit
N/A
Visualization observer readout
Local Sidereal Time
11:52:47
Azimuth
Unknown
Elevation
Unknown
Doppler factor
Unknown
Orbital elements
Apogee altitude
476.334 km
Perigee altitude
474.652 km
Semi-major axis
6,853.63 km
Eccentricity
0.00012
Inclination
53.1625°
RAAN
40.8993°
Arg. of periapsis
83.4018°
True anomaly
276.69824°
Mean anomaly
276.7122°
Eccentric anomaly
276.70522°
Mean motion
3.82527 °/min
Orbital period
94.11 mins
BSTAR
0.00001166
Loading maneuver chart data...
Computing Atmospheric mass density...
Loading historical data...
Loading historical data...
Loading historical data...
Loading historical data...
Loading historical data...
Loading historical data...
Loading historical data...

Documentation

Showing up to 5 results
|